Weather History for Page, AZ

Change the Weather History Date:

Wednesday, February 20, 2013

  Actual Average Record
Temperature  
Mean Temperature 42 °F -  
Max Temperature 46 °F 51 °F 65 °F (1958)
Min Temperature 39 °F 32 °F 23 °F (1967)
Degree Days  
Heating Degree Days 22    
Moisture  
Dew Point 22 °F    
Average Humidity 42    
Maximum Humidity 60    
Minimum Humidity 22    
Precipitation  
Precipitation 0.00 in - - ()
Sea Level Pressure  
Sea Level Pressure 29.54 in    
Wind  
Wind Speed 7 mph (SSW)    
Max Wind Speed 14 mph    
Max Gust Speed 18 mph    
Visibility 10 miles    
Events      
Averages and records for this station are not official NWS values.
T = Trace of Precipitation, MM = Missing Value Source: NWS Daily Summary

Daily Weather History Graph

Daily Weather History Graph

Search for Another Location

Airport:

Trip Planner

Search our weather history database for the weather conditions in past years. The results will help you decide how hot, cold, wet, or windy it might be!

Date:

Astronomy

Feb. 20, 2013 Rise Set
Actual Time 7:07 AM MST 6:11 PM MST
Civil Twilight 6:41 AM MST 6:37 PM MST
Nautical Twilight 6:11 AM MST 7:08 PM MST
Astronomical Twilight 5:41 AM MST 7:38 PM MST
Moon 1:40 PM MST (2/20) 3:26 AM MST (2/20)
Length of Visible Light 11h 56m
Length of Day
11h 03m
Waxing Gibbous, 76% of the Moon is Illuminated
Feb 20
Waxing Gibbous
Feb 25
Full
Mar 4
Last Quarter
Mar 11
New
Mar 19
First Quarter

Hourly Weather History & Observations

Time (MST) Temp. Windchill Dew Point Humidity Pressure Visibility Wind Dir Wind Speed Gust Speed Precip Events Conditions
12:53 AM 46.9 °F - 12.0 °F 24% 29.51 in 10.0 mi South 8.1 mph - N/A   Clear
1:53 AM 46.0 °F 40.6 °F 17.1 °F 31% 29.49 in 10.0 mi South 11.5 mph - N/A   Clear
2:53 AM 44.1 °F 39.0 °F 17.1 °F 34% 29.48 in 10.0 mi SSE 9.2 mph - N/A   Clear
3:53 AM 43.0 °F 37.7 °F 16.0 °F 34% 29.46 in 10.0 mi SSE 9.2 mph - N/A   Overcast
4:53 AM 44.6 °F 41.4 °F 17.6 °F 34% 29.53 in 10.0 mi SSW 5.8 mph - N/A   Overcast
5:53 AM 43.0 °F 38.8 °F 24.1 °F 47% 29.47 in 10.0 mi SSW 6.9 mph - N/A   Overcast
6:53 AM 43.0 °F 39.5 °F 24.1 °F 47% 29.49 in 10.0 mi SSW 5.8 mph - N/A   Overcast
7:53 AM 39.9 °F 32.1 °F 27.0 °F 60% 29.52 in 10.0 mi South 13.8 mph 18.4 mph N/A   Overcast
8:53 AM 41.0 °F - 26.1 °F 55% 29.53 in 10.0 mi Calm Calm - N/A   Overcast
9:53 AM 44.1 °F 41.5 °F 21.0 °F 40% 29.54 in 10.0 mi Variable 4.6 mph - N/A   Overcast
10:53 AM 42.1 °F 40.2 °F 24.1 °F 49% 29.56 in 10.0 mi Variable 3.5 mph - N/A   Overcast
11:53 AM 43.0 °F 41.3 °F 21.9 °F 43% 29.56 in 10.0 mi Variable 3.5 mph - N/A   Overcast
12:53 PM 43.0 °F 38.8 °F 25.0 °F 49% 29.55 in 10.0 mi WSW 6.9 mph - N/A   Overcast
1:53 PM 44.1 °F 39.0 °F 27.0 °F 51% 29.52 in 10.0 mi North 9.2 mph - N/A   Clear
2:53 PM 45.0 °F 41.8 °F 25.0 °F 46% 29.52 in 10.0 mi East 5.8 mph - N/A   Partly Cloudy
3:53 PM 46.0 °F - 24.1 °F 42% 29.52 in 10.0 mi Calm Calm - N/A   Clear
4:53 PM 46.9 °F - 24.1 °F 41% 29.51 in 10.0 mi Variable 4.6 mph - N/A   Clear
5:53 PM 44.1 °F 42.5 °F 24.1 °F 45% 29.53 in 10.0 mi South 3.5 mph - N/A   Clear
6:53 PM 43.0 °F - 24.1 °F 47% 29.57 in 10.0 mi Calm Calm - N/A   Clear
7:53 PM 42.1 °F 38.4 °F 23.0 °F 47% 29.61 in 10.0 mi West 5.8 mph - N/A   Clear
8:53 PM 41.0 °F 35.8 °F 19.9 °F 43% 29.62 in 10.0 mi West 8.1 mph - N/A   Partly Cloudy
9:53 PM 41.0 °F 37.1 °F 25.0 °F 53% 29.64 in 10.0 mi WNW 5.8 mph - N/A   Mostly Cloudy
10:53 PM 41.0 °F 38.0 °F 26.1 °F 55% 29.66 in 10.0 mi West 4.6 mph - N/A   Overcast